Theta_e
344 351 349 351 351 344 335 336 338 332 333 336 342 345 347 345 343 340 339 340 341 342 342 339 336 336 337 338 338 339 339 337 335 335 342 338 338 338 338 338 337 335 338
343 351 349 350 351 346 336 339 341 340 343 345 346 347 345 343 341 340 342 342 341 345 344 341 340 340 340 340 341 341 341 342 341 339 335 337 334 337 336 336 337 336 338
345 351 351 350 351 347 332 339 342 342 344 346 347 346 347 345 345 344 344 345 346 345 342 341 340 340 339 339 339 340 339 340 342 344 343 340 339 335 335 333 333 334 338
348 351 351 350 350 348 331 336 341 342 346 348 347 348 344 343 340 339 339 340 342 341 338 337 337 337 337 338 337 337 336 336 338 342 347 346 341 336 336 335 332 331 330
349 351 349 350 349 347 335 332 343 337 343 347 347 338 336 336 336 336 336 338 339 338 336 335 335 335 335 334 333 332 333 334 336 343 344 345 346 340 336 334 335 331 328
348 352 350 350 349 346 335 329 335 336 332 341 338 334 333 334 334 335 336 336 336 336 335 334 333 332 332 331 331 333 333 334 337 344 344 345 344 343 337 336 335 334 330
350 351 350 349 349 348 341 330 326 330 329 336 338 334 333 335 336 336 336 336 335 334 333 332 331 331 331 331 332 332 333 333 341 342 343 346 346 341 340 337 337 335 333
351 351 349 349 348 348 343 334 325 329 328 334 337 334 332 333 335 334 334 333 333 333 331 331 331 331 331 330 330 330 330 334 341 343 342 343 341 342 341 338 338 337 335
351 351 351 348 347 346 343 336 330 330 330 332 334 332 331 332 332 332 332 331 331 331 331 330 330 329 328 328 329 335 339 342 348 350 348 344 339 341 341 339 339 338 337
349 349 348 346 343 342 343 336 331 334 331 329 330 330 331 331 331 331 331 331 330 331 330 329 328 327 327 329 332 335 339 343 348 348 349 348 340 341 341 341 340 339 338
341 344 344 344 342 342 341 340 331 338 338 335 331 329 332 342 341 340 337 330 328 328 328 327 329 331 332 334 336 339 343 346 346 348 348 344 343 343 342 342 340 339 339
336 339 342 343 342 342 341 341 341 341 342 342 342 342 342 343 341 340 334 328 327 326 328 332 335 337 340 344 344 342 344 346 346 348 347 343 344 343 342 341 340 339 339
334 337 338 342 343 343 341 341 342 341 343 343 344 343 342 341 340 339 339 335 330 331 336 340 341 343 344 344 344 344 344 346 347 346 343 342 344 342 341 340 341 340 338
333 334 337 332 338 338 341 340 339 340 341 342 343 343 343 342 341 339 337 336 332 338 340 342 343 343 341 343 345 346 345 348 347 345 343 341 343 342 341 341 340 336 334
342 337 332 331 328 331 334 339 338 337 337 340 341 340 341 340 339 338 336 335 336 338 341 343 343 343 344 344 346 349 345 343 346 347 343 342 343 343 342 342 338 334 334
333 338 340 336 330 332 326 332 338 337 335 330 332 333 337 337 337 336 334 334 333 335 341 342 343 342 341 342 346 349 345 344 345 344 343 344 343 342 342 338 336 334 334
320 327 334 339 338 333 331 328 327 334 335 336 337 333 327 330 334 329 335 331 327 334 337 341 343 343 344 345 348 347 346 343 342 343 344 346 346 342 339 336 335 333 334
312 314 319 324 330 336 337 335 334 334 332 332 334 333 332 331 331 329 334 334 331 329 337 343 344 344 345 348 349 348 344 343 340 344 346 347 346 343 339 335 334 332 332
306 308 310 314 318 328 338 337 336 335 333 332 331 331 326 325 327 328 334 333 326 334 338 343 344 346 347 350 349 347 343 341 338 340 343 346 345 343 340 336 333 330 328
303 304 304 307 307 315 323 328 338 338 338 337 336 337 335 331 329 330 337 335 336 341 343 343 344 346 347 349 347 342 340 338 338 338 341 342 342 341 340 337 336 334 325
301 301 301 301 301 302 309 315 328 332 342 341 340 340 338 338 338 336 341 342 340 343 343 344 346 347 348 348 342 337 335 334 334 332 334 336 336 338 338 338 334 332 332
300 300 300 300 301 299 301 306 313 325 332 339 337 340 341 341 342 341 339 342 342 343 341 342 346 346 347 347 345 341 342 336 329 327 328 331 334 336 336 336 333 333 331
300 299 300 300 300 299 299 300 305 314 316 323 324 328 331 334 337 343 344 343 345 345 344 344 347 347 346 347 343 343 342 343 332 325 323 325 330 331 333 333 333 333 330
299 299 299 299 299 299 300 300 301 302 303 305 307 311 322 328 330 335 336 337 341 343 343 345 346 347 347 346 343 335 328 325 333 332 322 319 319 322 326 327 328 333 330
299 299 299 299 300 299 299 300 300 301 301 302 303 302 305 314 316 321 323 328 333 338 341 343 344 345 346 347 345 332 325 326 324 323 330 322 317 316 319 322 324 329 327
299 299 299 299 300 299 299 299 299 300 300 301 301 302 304 304 305 308 311 315 320 327 331 334 338 340 342 346 346 339 330 327 327 323 323 323 320 316 318 324 327 326 323
Wind_Speed
18 22 23 19 18 17 17 17 18 19 18 17 18 17 17 17 18 18 19 18 18 18 18 18 18 18 17 15 15 15 15 15 14 13 11 11 10 9 9 8 9 9 10
20 22 23 19 19 17 16 18 17 18 18 18 17 17 17 17 17 18 17 17 17 16 15 15 14 13 13 12 11 11 11 10 10 10 10 9 9 7 7 6 9 6 8
23 22 21 19 18 17 16 18 17 18 18 17 17 17 16 17 16 16 16 16 15 15 14 12 11 10 10 9 8 8 8 7 7 6 6 6 5 6 5 5 5 5 5
23 23 21 20 19 17 17 18 18 17 18 17 16 16 16 16 16 15 14 13 13 12 11 9 8 8 7 6 6 6 6 7 6 6 4 3 1 2 2 2 3 3 4
20 21 22 19 18 16 17 17 17 18 18 16 15 16 16 15 14 13 13 12 10 9 8 7 6 5 4 4 5 5 6 6 7 6 5 4 3 4 1 0 1 1 2
18 17 20 18 16 16 16 17 17 17 18 17 16 15 15 14 13 12 11 10 8 7 5 4 3 2 2 3 4 5 6 6 7 6 6 5 4 7 4 3 2 2 1
19 16 18 16 15 14 15 16 17 17 17 16 15 15 14 14 12 11 9 8 7 5 4 3 1 1 2 3 4 5 7 7 7 7 5 5 5 7 7 5 5 4 4
20 17 19 15 15 13 13 14 16 17 17 16 14 14 13 13 11 9 8 7 5 4 2 1 1 2 4 5 7 8 9 9 9 8 6 6 7 7 9 6 6 6 6
18 17 16 15 15 13 13 14 16 17 16 16 14 14 14 12 11 9 8 6 5 4 3 2 3 4 5 6 7 8 10 11 9 8 7 6 6 4 9 8 7 6 7
17 17 17 16 15 14 13 15 17 16 16 16 16 15 14 12 11 10 8 6 6 5 4 5 6 6 7 7 8 10 11 11 7 6 6 6 7 5 9 8 6 6 7
13 14 14 15 14 15 15 15 17 16 15 15 16 16 14 11 11 10 10 9 8 7 6 7 7 8 9 9 9 9 10 8 8 5 5 7 6 5 7 9 6 7 7
1 3 4 7 7 8 8 10 13 13 13 14 13 13 12 11 11 10 11 10 10 9 9 8 9 10 9 7 8 9 7 7 7 6 5 6 5 4 2 7 7 8 6
4 4 4 4 5 7 6 6 7 7 8 10 12 13 13 11 12 11 10 10 10 9 8 8 9 8 9 9 9 9 8 7 7 6 5 6 4 3 5 7 6 6 5
5 4 6 9 10 13 9 8 9 9 9 11 11 12 11 11 11 11 11 10 11 9 10 10 9 11 11 11 11 12 10 8 8 7 5 4 4 3 3 4 5 5 6
13 8 10 13 15 15 14 12 11 12 13 13 13 14 14 14 13 13 13 13 11 10 10 11 12 12 12 12 11 12 11 11 10 9 6 5 6 5 4 4 6 6 6
26 21 11 11 15 16 17 15 12 13 15 17 17 17 16 18 16 15 15 14 13 13 12 13 13 13 12 13 13 10 11 10 10 9 7 7 9 7 5 7 7 5 6
28 26 26 6 9 15 17 17 19 17 15 15 16 18 21 21 19 20 16 16 17 17 16 15 13 12 12 11 10 8 7 10 9 8 8 8 8 10 9 8 8 6 5
31 31 26 22 17 12 14 16 16 16 19 19 18 18 20 21 21 22 19 17 16 17 14 14 12 13 13 12 11 10 11 11 9 8 8 8 9 9 9 9 7 5 4
31 32 30 29 26 21 18 10 14 17 19 18 20 20 22 23 23 23 20 19 20 17 16 15 15 13 13 12 11 11 11 9 10 7 7 9 10 10 7 10 8 6 4
31 31 31 30 32 26 18 15 8 13 16 16 17 18 21 21 21 21 19 21 21 17 17 18 18 15 14 13 13 11 12 9 8 8 8 10 11 11 10 9 9 6 6
32 34 34 36 37 34 27 25 13 13 13 12 15 19 22 23 22 20 19 20 23 21 23 21 18 17 16 12 9 8 10 9 8 7 9 9 10 11 11 10 10 8 7
31 31 31 31 31 34 31 24 12 12 10 8 12 11 10 15 18 21 24 26 27 24 30 29 22 20 18 17 12 7 4 5 6 6 6 7 8 10 11 10 9 9 10
31 30 29 30 29 31 33 30 26 14 16 15 19 16 18 16 14 13 15 24 24 18 23 22 20 23 23 18 20 12 2 5 3 3 3 3 9 8 10 11 11 11 11
29 26 26 28 28 27 27 26 26 22 21 21 22 23 22 20 20 15 19 20 18 15 15 19 20 22 21 24 11 15 2 6 2 2 1 6 9 11 14 12 12 13 12
27 29 28 28 28 29 29 28 25 22 20 23 27 29 26 24 22 19 17 17 18 19 19 18 20 21 21 23 22 8 11 8 9 3 3 9 12 12 10 13 14 14 13
29 30 29 31 29 29 28 26 24 25 27 27 27 27 26 27 26 21 21 22 22 21 22 25 26 26 24 24 23 27 24 15 12 6 1 4 13 12 13 11 13 14 13
Wind_Direction
161 160 159 162 147 144 142 137 134 137 134 130 126 121 123 123 120 117 112 109 107 102 97 96 94 91 87 83 78 74 71 67 64 60 64 67 69 73 78 81 76 77 90
158 157 159 163 150 146 144 140 135 132 128 127 127 127 127 124 121 119 116 113 110 105 103 101 96 91 86 80 74 67 62 59 57 55 55 47 56 71 76 76 84 88 98
153 156 160 164 153 148 149 143 139 133 134 134 135 133 131 129 125 125 122 118 115 112 109 103 98 94 88 81 71 61 53 44 37 32 34 44 57 60 72 75 81 85 95
151 156 161 167 157 152 154 148 142 139 139 141 140 138 137 136 133 133 129 123 120 116 111 106 101 92 81 70 55 38 26 16 6 355 347 333 3 2 64 62 78 93 106
148 155 164 169 160 156 155 152 146 146 145 145 146 147 145 145 143 142 137 133 130 126 118 112 102 85 62 38 20 7 2 354 343 341 319 315 270 261 260 240 18 35 107
150 156 165 172 164 157 155 155 154 153 154 151 155 155 155 155 153 151 147 143 142 139 129 115 98 76 43 3 352 347 342 340 344 322 317 300 279 241 240 246 232 224 281
150 157 167 174 167 161 158 160 162 162 162 158 161 163 162 162 161 160 158 155 153 149 139 125 96 15 347 333 331 329 326 325 318 310 309 288 301 251 229 243 248 257 262
150 154 167 172 172 168 166 167 168 170 169 166 170 172 172 170 170 172 170 171 170 172 175 180 259 308 317 320 321 322 319 317 305 286 284 288 299 257 223 234 246 254 266
151 155 161 169 171 176 176 175 174 177 175 175 178 180 182 181 181 187 189 191 198 209 222 257 287 307 313 318 321 324 324 326 312 288 277 270 283 273 228 232 256 258 267
159 167 172 174 175 178 184 185 185 185 182 183 186 191 190 190 195 198 206 217 227 243 260 280 294 303 308 316 319 320 321 324 315 308 286 264 257 268 239 230 265 276 272
171 179 183 184 186 184 185 191 192 192 192 195 196 197 201 206 216 223 227 224 240 254 269 281 292 301 307 312 314 317 317 313 315 312 307 303 267 262 245 207 241 264 275
267 248 234 233 223 214 209 199 199 198 201 206 209 208 213 220 225 227 236 237 247 261 275 287 296 302 316 306 308 321 315 312 319 314 308 309 271 225 184 230 230 244 258
318 280 285 281 257 246 248 242 236 232 230 234 226 222 223 229 233 237 247 253 257 264 278 293 301 309 310 312 312 311 302 302 306 313 318 329 255 221 249 225 231 235 248
317 277 251 239 228 231 233 238 233 233 241 246 247 244 243 249 255 254 256 260 269 277 285 299 304 308 314 315 317 322 305 299 298 301 292 291 241 271 241 236 224 238 254
345 286 250 242 240 238 239 235 232 236 239 244 246 244 242 245 252 259 262 265 265 279 292 302 310 314 318 315 315 315 309 303 296 286 278 252 225 225 243 215 215 245 257
21 12 309 265 255 243 242 247 249 250 251 247 250 251 249 250 253 256 263 271 277 283 289 299 304 304 303 309 307 310 315 306 299 300 263 233 221 212 199 207 212 251 267
22 22 24 337 288 266 257 253 253 254 256 260 260 260 258 256 259 261 263 263 266 267 275 283 288 288 298 293 290 285 287 295 311 300 264 251 236 212 194 201 209 238 257
26 25 25 30 21 349 283 266 253 250 254 259 263 264 265 264 264 265 264 263 266 271 277 284 292 289 290 282 280 270 267 276 287 287 262 238 225 216 202 210 216 220 227
24 23 23 23 20 16 6 289 269 258 256 259 263 265 267 268 265 263 260 262 268 268 265 266 270 268 275 278 277 271 272 282 275 269 248 225 211 208 206 198 199 191 205
23 23 22 22 21 19 15 6 325 281 275 268 266 263 268 268 268 266 262 265 265 260 261 259 255 250 244 251 258 257 271 276 268 249 224 214 205 203 200 183 185 186 186
22 22 19 17 19 21 15 10 2 355 321 305 288 276 271 268 268 268 264 265 267 259 258 254 252 251 247 238 237 246 249 261 264 245 222 205 200 199 200 194 188 185 188
18 17 16 15 12 13 18 4 356 352 349 12 4 353 311 285 273 267 267 264 263 257 261 259 243 244 250 226 231 240 256 226 218 203 211 191 190 202 202 204 206 193 185
15 12 12 10 9 8 12 6 11 25 357 354 353 343 330 329 314 297 280 287 275 267 272 272 257 244 248 244 228 233 221 239 162 155 198 212 200 204 213 217 214 211 198
8 7 9 9 9 8 9 9 11 5 349 330 329 320 315 314 314 310 295 299 293 284 273 277 270 256 251 253 223 218 160 146 158 142 274 226 230 220 226 235 229 221 209
4 6 6 5 7 7 7 8 4 355 342 331 332 326 316 301 299 306 312 305 297 286 279 270 264 261 252 245 234 186 183 172 174 150 207 181 213 222 228 233 235 221 207
6 6 3 2 5 5 5 3 359 351 344 339 335 331 327 318 313 311 308 304 303 296 280 272 266 260 254 245 239 216 198 174 199 174 230 240 188 178 219 227 219 210 204